| time (UTC) | temp C | wind direction | speed KPH | gust KPH | rain 1hr cm | rain 24hr cm | rain mn cm | humidity % | barometer mb |
| 20260508073903 | 8 | 80 | 0.0 | 0.0 | 0.00 | 0.00 | 0.00 | 56 | 1021.7 |
| 20260508071803 | 8 | 80 | 0.0 | 0.0 | 0.00 | 0.00 | 0.00 | 55 | 1021.9 |
| 20260508070804 | 8 | 80 | 0.0 | 0.0 | 0.00 | 0.00 | 0.00 | 55 | 1022.0 |
| 20260508065802 | 8 | 217 | 4.8 | 14.5 | 0.00 | 0.00 | 0.00 | 55 | 1022.0 |
| 20260508064803 | 8 | 360 | 0.0 | 14.5 | 0.00 | 0.00 | 0.00 | 55 | 1022.0 |
| 20260508063803 | 8 | 315 | 0.0 | 4.8 | 0.00 | 0.00 | 0.00 | 54 | 1022.0 |
| 20260508061704 | 8 | 100 | 0.0 | 14.5 | 0.00 | 0.00 | 0.18 | 55 | 1021.9 |
| 20260508060702 | 8 | 360 | 0.0 | 0.0 | 0.00 | 0.00 | 0.18 | 56 | 1022.0 |
| 20260508055703 | 8 | 360 | 0.0 | 0.0 | 0.00 | 0.00 | 0.18 | 56 | 1022.0 |
| 20260508054704 | 8 | 178 | 0.0 | 0.0 | 0.00 | 0.00 | 0.18 | 55 | 1022.1 |
| 20260508053704 | 8 | 178 | 0.0 | 3.2 | 0.00 | 0.00 | 0.18 | 55 | 1022.0 |
| 20260508052703 | 8 | 11 | 0.0 | 4.8 | 0.00 | 0.00 | 0.18 | 55 | 1022.0 |
| 20260508051703 | 8 | 360 | 3.2 | 3.2 | 0.00 | 0.00 | 0.18 | 54 | 1022.0 |
| 20260508050704 | 9 | 148 | 0.0 | 3.2 | 0.00 | 0.00 | 0.18 | 54 | 1022.0 |
| 20260508045705 | 9 | 160 | 1.6 | 14.5 | 0.00 | 0.00 | 0.18 | 54 | 1022.0 |
| 20260508044703 | 10 | 102 | 0.0 | 4.8 | 0.00 | 0.00 | 0.18 | 54 | 1021.9 |
| 20260508043704 | 10 | 199 | 0.0 | 3.2 | 0.00 | 0.00 | 0.18 | 53 | 1021.9 |
| 20260508042703 | 10 | 236 | 0.0 | 16.1 | 0.00 | 0.00 | 0.18 | 51 | 1021.9 |
| 20260508041703 | 10 | 145 | 0.0 | 0.0 | 0.00 | 0.00 | 0.18 | 51 | 1022.0 |
| 20260508040704 | 10 | 145 | 0.0 | 1.6 | 0.00 | 0.00 | 0.18 | 50 | 1022.0 |
| 20260508035705 | 11 | 145 | 3.2 | 0.0 | 0.00 | 0.00 | 0.18 | 50 | 1022.0 |
| 20260508033603 | 11 | 137 | 0.0 | 4.8 | 0.00 | 0.00 | 0.18 | 49 | 1022.0 |
| 20260508031503 | 11 | 360 | 0.0 | 8.0 | 0.00 | 0.00 | 0.18 | 48 | 1021.6 |
| 20260508030504 | 11 | 360 | 0.0 | 14.5 | 0.00 | 0.00 | 0.18 | 48 | 1021.6 |
| 20260508025502 | 11 | 360 | 0.0 | 0.0 | 0.00 | 0.00 | 0.18 | 47 | 1021.5 |
| 20260508024503 | 11 | 360 | 4.8 | 16.1 | 0.00 | 0.00 | 0.18 | 45 | 1021.3 |
| 20260508023503 | 11 | 110 | 0.0 | 0.0 | 0.00 | 0.00 | 0.18 | 46 | 1021.3 |
| 20260508022502 | 12 | 360 | 1.6 | 9.7 | 0.00 | 0.00 | 0.18 | 45 | 1021.3 |
| 20260508021503 | 12 | 121 | 3.2 | 16.1 | 0.00 | 0.00 | 0.18 | 44 | 1021.1 |
| 20260508020503 | 12 | 360 | 1.6 | 14.5 | 0.00 | 0.00 | 0.18 | 43 | 1021.1 |
| 20260508015504 | 12 | 360 | 1.6 | 16.1 | 0.00 | 0.00 | 0.18 | 42 | 1020.9 |
| 20260508013404 | 13 | 360 | 1.6 | 14.5 | 0.00 | 0.00 | 0.18 | 41 | 1020.7 |
| 20260508012403 | 13 | 160 | 4.8 | 12.9 | 0.00 | 0.00 | 0.18 | 39 | 1020.7 |
| 20260508010303 | 14 | 184 | 4.8 | 16.1 | 0.00 | 0.00 | 0.18 | 36 | 1020.4 |
| 20260508005306 | 15 | 360 | 4.8 | 16.1 | 0.00 | 0.00 | 0.18 | 34 | 1020.4 |
| 20260508004302 | 16 | 272 | 3.2 | 14.5 | 0.00 | 0.00 | 0.18 | 31 | 1020.4 |
| 20260508003303 | 16 | 329 | 3.2 | 14.5 | 0.00 | 0.00 | 0.18 | 28 | 1020.5 |
| 20260508002306 | 17 | 292 | 1.6 | 6.4 | 0.00 | 0.00 | 0.18 | 26 | 1020.7 |
| 20260508000205 | 17 | 359 | 0.0 | 1.6 | 0.00 | 0.00 | 0.18 | 24 | 1020.7 |
| 20260507235202 | 17 | 315 | 3.2 | 3.2 | 0.00 | 0.00 | 0.18 | 24 | 1020.8 |
| 20260507234203 | 16 | 318 | 1.6 | 9.7 | 0.00 | 0.00 | 0.18 | 23 | 1020.7 |
| 20260507233204 | 16 | 325 | 1.6 | 9.7 | 0.00 | 0.00 | 0.18 | 25 | 1020.7 |
| 20260507232202 | 16 | 16 | 3.2 | 12.9 | 0.00 | 0.00 | 0.18 | 25 | 1020.8 |
| 20260507231203 | 16 | 0 | 0.0 | 9.7 | 0.00 | 0.00 | 0.18 | 25 | 1020.5 |
| 20260507230203 | 17 | 330 | 1.6 | 14.5 | 0.00 | 0.00 | 0.18 | 24 | 1020.7 |
| 20260507225204 | 16 | 4 | 4.8 | 14.5 | 0.00 | 0.00 | 0.18 | 23 | 1020.7 |
| 20260507223102 | 15 | 360 | 1.6 | 11.3 | 0.00 | 0.00 | 0.18 | 26 | 1020.8 |
| 20260507222103 | 16 | 31 | 1.6 | 1.6 | 0.00 | 0.00 | 0.18 | 25 | 1020.8 |
| 20260507221103 | 15 | 320 | 1.6 | 9.7 | 0.00 | 0.00 | 0.18 | 24 | 1020.9 |
| 20260507215103 | 16 | 360 | 8.0 | 14.5 | 0.00 | 0.00 | 0.18 | 22 | 1021.2 |
| 20260507214103 | 16 | 360 | 6.4 | 16.1 | 0.00 | 0.00 | 0.18 | 22 | 1021.3 |
| 20260507213104 | 16 | 31 | 1.6 | 20.9 | 0.00 | 0.00 | 0.18 | 22 | 1021.5 |
| 20260507212102 | 16 | 346 | 8.0 | 9.7 | 0.00 | 0.00 | 0.18 | 20 | 1021.6 |
| 20260507211103 | 16 | 68 | 6.4 | 12.9 | 0.00 | 0.00 | 0.18 | 22 | 1021.7 |
| 20260507210104 | 16 | 294 | 8.0 | 16.1 | 0.00 | 0.00 | 0.18 | 20 | 1021.9 |
| 20260507205104 | 17 | 1 | 3.2 | 12.9 | 0.00 | 0.00 | 0.18 | 22 | 1021.9 |
| 20260507204103 | 16 | 8 | 4.8 | 9.7 | 0.00 | 0.00 | 0.18 | 20 | 1022.1 |
| 20260507203104 | 16 | 336 | 0.0 | 9.7 | 0.00 | 0.00 | 0.18 | 23 | 1022.1 |
| 20260507202104 | 16 | 353 | 9.7 | 14.5 | 0.00 | 0.00 | 0.18 | 21 | 1022.4 |
| 20260507201103 | 16 | 349 | 0.0 | 14.5 | 0.00 | 0.00 | 0.18 | 21 | 1022.4 |
| 20260507200103 | 15 | 65 | 12.9 | 12.9 | 0.00 | 0.00 | 0.18 | 19 | 1022.5 |
| 20260507195104 | 15 | 30 | 3.2 | 14.5 | 0.00 | 0.00 | 0.18 | 19 | 1022.4 |
| 20260507194105 | 15 | 7 | 4.8 | 19.3 | 0.00 | 0.00 | 0.18 | 21 | 1022.7 |
| 20260507193103 | 15 | 65 | 3.2 | 12.9 | 0.00 | 0.00 | 0.18 | 20 | 1022.8 |
| 20260507191004 | 15 | 42 | 3.2 | 8.0 | 0.00 | 0.00 | 0.18 | 20 | 1023.1 |
| 20260507184904 | 15 | 40 | 3.2 | 9.7 | 0.00 | 0.00 | 0.18 | 21 | 1023.2 |
| 20260507183902 | 15 | 8 | 0.0 | 8.0 | 0.00 | 0.00 | 0.18 | 25 | 1023.2 |
| 20260507182903 | 14 | 78 | 1.6 | 4.8 | 0.00 | 0.00 | 0.18 | 26 | 1023.3 |
| 20260507181904 | 14 | 350 | 0.0 | 4.8 | 0.00 | 0.00 | 0.18 | 23 | 1023.5 |
| 20260507180902 | 14 | 268 | 0.0 | 3.2 | 0.00 | 0.00 | 0.18 | 27 | 1023.6 |
| 20260507175903 | 13 | 196 | 1.6 | 14.5 | 0.00 | 0.00 | 0.18 | 29 | 1023.7 |
| 20260507174903 | 13 | 360 | 0.0 | 0.0 | 0.00 | 0.00 | 0.18 | 27 | 1023.9 |
| 20260507173906 | 13 | 360 | 0.0 | 0.0 | 0.00 | 0.00 | 0.18 | 27 | 1024.0 |
| 20260507171802 | 12 | 306 | 0.0 | 11.3 | 0.00 | 0.00 | 0.18 | 30 | 1024.3 |
| 20260507170803 | 11 | 339 | 0.0 | 6.4 | 0.00 | 0.00 | 0.18 | 29 | 1024.5 |
| 20260507165803 | 11 | 353 | 1.6 | 4.8 | 0.00 | 0.00 | 0.18 | 29 | 1024.7 |
| 20260507164804 | 11 | 360 | 0.0 | 4.8 | 0.00 | 0.00 | 0.18 | 29 | 1024.8 |
| 20260507163803 | 10 | 18 | 0.0 | 4.8 | 0.00 | 0.00 | 0.18 | 29 | 1024.8 |
| 20260507150602 | 5 | 75 | 0.0 | 0.0 | 0.00 | 0.00 | 0.15 | 55 | 1025.6 |
| 20260507145603 | 5 | 51 | 0.0 | 8.0 | 0.00 | 0.00 | 0.15 | 57 | 1025.5 |
| 20260507144604 | 3 | 208 | 0.0 | 8.0 | 0.00 | 0.00 | 0.15 | 59 | 1025.6 |
| 20260507143602 | 2 | 213 | 3.2 | 6.4 | 0.00 | 0.00 | 0.15 | 63 | 1025.7 |
| 20260507142603 | 1 | 106 | 0.0 | 8.0 | 0.00 | 0.00 | 0.13 | 66 | 1025.9 |
| 20260507141603 | 1 | 232 | 3.2 | 3.2 | 0.00 | 0.00 | 0.13 | 66 | 1025.9 |
| 20260507140604 | 0 | 202 | 4.8 | 9.7 | 0.00 | 0.00 | 0.13 | 67 | 1025.9 |
| 20260507135603 | -1 | 192 | 1.6 | 8.0 | 0.00 | 0.00 | 0.05 | 67 | 1025.9 |
| 20260507134603 | -1 | 154 | 3.2 | 1.6 | 0.00 | 0.00 | 0.05 | 68 | 1026.0 |
| 20260507133604 | -1 | 151 | 3.2 | 14.5 | 0.00 | 0.00 | 0.05 | 68 | 1026.0 |
| 20260507132602 | -1 | 244 | 0.0 | 6.4 | 0.00 | 0.00 | 0.05 | 68 | 1026.0 |
| 20260507131603 | -1 | 100 | 1.6 | 14.5 | 0.00 | 0.00 | 0.05 | 68 | 1025.9 |
| 20260507130604 | -1 | 360 | 1.6 | 14.5 | 0.00 | 0.00 | 0.05 | 69 | 1025.9 |
| 20260507123403 | -1 | 143 | 3.2 | 9.7 | 0.00 | 0.00 | 0.05 | 69 | 1025.6 |
| 20260507120203 | -1 | 360 | 3.2 | 16.1 | 0.00 | 0.00 | 0.05 | 68 | 1025.3 |
| 20260507115204 | -1 | 333 | 1.6 | 12.9 | 0.00 | 0.00 | 0.05 | 66 | 1025.3 |
| 20260507114202 | -1 | 171 | 6.4 | 16.1 | 0.00 | 0.00 | 0.05 | 69 | 1025.2 |
| 20260507113203 | -1 | 192 | 1.6 | 14.5 | 0.00 | 0.00 | 0.03 | 69 | 1025.3 |
| 20260507112203 | -1 | 223 | 1.6 | 14.5 | 0.00 | 0.00 | 0.03 | 69 | 1025.3 |
| 20260507111204 | -1 | 212 | 6.4 | 16.1 | 0.00 | 0.00 | 0.03 | 69 | 1025.5 |
| 20260507110203 | -1 | 360 | 1.6 | 16.1 | 0.00 | 0.00 | 0.03 | 70 | 1025.5 |
| 20260507105203 | -1 | 151 | 3.2 | 16.1 | 0.00 | 0.00 | 0.03 | 70 | 1025.6 |
| 20260507104204 | -1 | 360 | 3.2 | 16.1 | 0.00 | 0.00 | 0.03 | 69 | 1025.6 |
| 20260507103202 | -1 | 192 | 4.8 | 14.5 | 0.00 | 0.00 | 0.03 | 70 | 1025.7 |
| 20260507102203 | -1 | 360 | 4.8 | 16.1 | 0.00 | 0.00 | 0.03 | 71 | 1026.0 |
| 20260507101203 | 0 | 240 | 0.0 | 16.1 | 0.00 | 0.00 | 0.03 | 71 | 1026.0 |
| 20260507100204 | 0 | 175 | 4.8 | 14.5 | 0.00 | 0.00 | 0.03 | 71 | 1026.0 |
| 20260507095202 | 0 | 154 | 1.6 | 12.9 | 0.00 | 0.00 | 0.03 | 70 | 1025.7 |
| 20260507094203 | 0 | 169 | 4.8 | 11.3 | 0.00 | 0.00 | 0.03 | 71 | 1025.7 |
| 20260507093204 | 0 | 219 | 3.2 | 16.1 | 0.00 | 0.00 | 0.03 | 71 | 1025.7 |
| 20260507092202 | 0 | 360 | 3.2 | 16.1 | 0.00 | 0.00 | 0.00 | 71 | 1025.6 |
| 20260507085103 | 0 | 270 | 3.2 | 16.1 | 0.00 | 0.00 | 0.00 | 71 | 1026.0 |
| 20260507084103 | 0 | 360 | 3.2 | 14.5 | 0.00 | 0.00 | 0.00 | 72 | 1026.0 |
| 20260507083104 | 0 | 151 | 6.4 | 11.3 | 0.00 | 0.00 | 0.00 | 72 | 1026.1 |
| 20260507082102 | 0 | 236 | 3.2 | 11.3 | 0.00 | 0.00 | 0.00 | 72 | 1026.3 |
| 20260507081103 | 0 | 349 | 4.8 | 6.4 | 0.00 | 0.00 | 0.00 | 75 | 1026.3 |
| 20260507080104 | 0 | 195 | 1.6 | 6.4 | 0.00 | 0.00 | 0.00 | 74 | 1026.3 |